EW2817 Weather Reports


time (UTC)temp
C
wind
direction
speed
KPH
gust
KPH
rain 1hr
cm
rain 24hr
cm
rain mn
cm
humidity
%
barometer
mb
20240723051432 23 0 0.0 0.0 0.00 1.30 0.00 91 994.1
20240723044429 23 0 0.0 0.0 0.00 1.93 0.00 91 994.1
20240723042930 23 0 0.0 0.0 0.00 2.06 0.00 91 994.0
20240723041427 23 0 0.0 0.0 0.00 2.11 0.00 91 994.0
20240723034424 23 0 0.0 0.0 0.00 2.13 2.13 91 994.2
20240723031426 23 0 0.0 0.0 0.00 2.13 2.13 91 994.1
20240723025926 24 0 0.0 0.0 0.00 2.13 2.13 91 994.3
20240723024420 24 0 0.0 0.0 0.00 2.13 2.13 91 994.3
20240723022918 24 0 0.0 0.0 0.00 2.13 2.13 91 994.0
20240723021417 24 0 0.0 0.0 0.00 2.13 2.13 91 994.0
20240723015915 24 0 0.0 0.0 0.00 2.13 2.13 91 993.9
20240723011411 24 0 0.0 0.0 0.03 2.13 2.13 91 993.0
20240723005907 24 0 0.0 0.0 0.03 2.13 2.13 91 993.0
20240723004404 24 0 0.0 0.0 0.03 2.13 2.13 91 992.7
20240723002904 24 0 0.0 0.0 0.03 2.13 2.13 91 992.8
20240723001402 24 0 0.0 0.0 0.00 2.11 2.13 91 992.7
20240722235903 24 0 0.0 0.0 0.00 2.11 2.11 91 992.6
20240722234401 24 0 0.0 0.0 0.00 2.11 2.11 91 992.4
20240722232902 24 0 0.0 0.0 0.00 2.11 2.11 91 992.3
20240722225900 25 0 0.0 0.0 0.28 2.11 2.11 91 992.3
20240722224357 25 0 0.0 0.0 0.28 2.11 2.11 91 992.1
20240722221356 26 0 0.0 0.0 0.00 1.83 1.83 91 991.9
20240722215853 26 0 0.0 0.0 0.00 1.83 1.83 91 991.8
20240722214352 26 0 0.0 0.0 0.00 1.83 1.83 91 991.7
20240722212852 25 0 0.0 0.0 0.00 1.83 1.83 91 991.9
20240722211352 25 0 0.0 0.0 0.00 1.83 1.83 91 991.6
20240722204352 25 0 0.0 0.0 0.00 1.83 1.83 91 992.0
20240722202850 24 0 0.0 0.0 0.00 1.83 1.83 91 992.2
20240722201350 24 0 0.0 0.0 0.00 1.83 1.83 91 992.3
20240722195850 23 0 0.0 0.0 0.10 1.83 1.83 91 992.5
20240722194348 23 0 0.0 0.0 0.15 1.83 1.83 91 992.9
20240722192849 23 0 0.0 0.0 0.28 1.83 1.83 91 993.6
20240722191342 24 0 0.0 0.0 0.48 1.83 1.83 91 993.6
20240722185841 25 0 0.0 0.0 0.43 1.73 1.75 91 993.8
20240722184341 25 0 0.0 0.0 0.38 1.68 1.68 91 993.3
20240722182841 25 0 0.0 0.0 0.25 1.55 1.55 92 993.6
20240722181342 26 0 0.0 0.0 0.05 1.35 1.35 91 993.6
20240722175842 27 0 0.0 0.0 0.00 1.30 1.30 91 993.5
20240722172843 27 0 0.0 0.0 0.00 1.30 1.30 90 993.7
20240722171341 26 0 0.0 0.0 0.00 1.30 1.30 91 994.0
20240722165839 26 0 0.0 0.0 0.00 1.30 1.30 91 994.1
20240722164339 25 0 0.0 0.0 0.00 1.30 1.30 91 994.5
20240722162839 25 0 0.0 0.0 0.00 1.30 1.30 90 994.6
20240722161338 25 0 0.0 0.0 0.00 1.30 1.30 91 994.6
20240722155837 25 0 0.0 0.0 0.00 1.30 1.30 92 994.6
20240722154337 25 0 0.0 0.0 0.00 1.30 1.30 92 994.7
20240722152835 24 0 0.0 0.0 0.00 1.30 1.30 92 994.7
20240722151335 23 0 0.0 0.0 0.00 1.30 1.30 92 994.7
20240722145835 23 0 0.0 0.0 0.00 1.30 1.30 92 994.8
20240722144332 23 0 0.0 0.0 0.00 1.30 1.30 92 994.9
20240722141330 23 0 0.0 0.0 0.00 1.30 1.30 92 994.8
20240722135829 22 0 0.0 0.0 0.00 1.30 1.30 92 994.9
20240722132826 22 0 0.0 0.0 0.00 1.30 1.30 92 994.9
20240722131328 22 0 0.0 0.0 0.00 1.30 1.30 92 994.8
20240722125827 22 0 0.0 0.0 0.00 1.30 1.30 92 994.5
20240722124326 22 0 0.0 0.0 0.00 1.30 1.30 92 994.3
20240722122826 22 0 0.0 0.0 0.03 1.30 1.30 91 994.2
20240722121327 22 0 0.0 0.0 0.03 1.30 1.30 91 994.2
20240722115826 22 0 0.0 0.0 0.03 1.30 1.30 91 994.2
20240722114327 22 0 0.0 0.0 0.03 1.30 1.30 91 994.1
20240722112826 22 0 0.0 0.0 0.00 1.27 1.27 91 994.1
20240722111326 22 0 0.0 0.0 0.00 1.27 1.27 91 994.1
20240722105827 22 0 0.0 0.0 0.00 1.27 1.27 91 993.9
20240722104324 22 0 0.0 0.0 0.00 1.27 1.27 91 993.8
20240722101322 22 0 0.0 0.0 0.00 1.27 1.27 91 993.7
20240722095822 22 0 0.0 0.0 0.00 1.27 1.27 91 993.7
20240722094318 22 0 0.0 0.0 0.00 1.27 1.27 91 993.7
20240722091314 22 0 0.0 0.0 0.00 1.27 1.27 91 993.4
20240722085812 22 0 0.0 0.0 0.00 1.27 1.27 91 993.1
20240722084311 22 0 0.0 0.0 0.00 1.27 1.27 91 993.2
20240722082810 22 0 0.0 0.0 0.03 1.27 1.27 91 993.4
20240722074303 22 0 0.0 0.0 0.05 1.27 1.27 90 994.0
20240722072802 22 0 0.0 0.0 0.03 1.24 1.24 90 994.2
20240722071302 22 0 0.0 0.0 0.05 1.22 1.22 90 994.4
20240722065759 21 0 0.0 0.0 0.10 1.22 1.22 90 994.4
20240722064300 22 0 0.0 0.0 0.15 1.22 1.22 90 994.2
20240722062800 21 0 0.0 0.0 0.20 1.22 1.22 90 994.5
20240722055759 21 0 0.0 0.0 0.43 1.12 1.12 90 994.2
20240722054300 22 0 0.0 0.0 0.86 1.07 1.07 90 994.3